Overview Statistics Trail Chart Weather Telemetry Raw packets
 

This is the latest recevied weather packets stored in our database for station/object K7SKM. If no packets are shown the sender has not sent any weather packets the latest 10 day(s).

<< 109 110 111 112 113 114 >>
Time Temp. Humidity Pressure Rain* Wind** Luminosity Snow
1787848209 20° C 64% 1021.9 hPa 0 mm - 212 W/m² -
1787847909 20° C 65% 1022 hPa 0 mm - 192 W/m² -
1787847603 18.89° C 68% 1021.9 hPa 0 mm - 167 W/m² -
1787847299 18.33° C 69% 1021.9 hPa 0 mm - 72 W/m² -
1787846995 18.33° C 70% 1021.8 hPa 0 mm - 59 W/m² -
1787846695 18.89° C 69% 1021.8 hPa 0 mm - 71 W/m² -
1787846390 18.33° C 70% 1021.8 hPa 0 mm - 80 W/m² -
1787846085 18.33° C 70% 1021.8 hPa 0 mm - 92 W/m² -
1787845781 17.78° C 71% 1021.6 hPa 0 mm - 64 W/m² -
1787845477 17.78° C 72% 1021.7 hPa 0 mm - 66 W/m² -
1787845173 17.78° C 72% 1021.7 hPa 0 mm - 46 W/m² -
1787844868 17.22° C 72% 1021.9 hPa 0 mm - 39 W/m² -
1787844569 17.22° C 74% 1021.8 hPa 0 mm - 36 W/m² -
1787844262 17.22° C 74% 1021.6 hPa 0 mm - 37 W/m² -
1787843961 17.22° C 75% 1021.7 hPa 0 mm - 35 W/m² -
1787843656 16.67° C 75% 1021.6 hPa 0 mm - 36 W/m² -
1787843353 16.67° C 75% 1021.8 hPa 0 mm - 33 W/m² -
1787843048 16.67° C 76% 1021.7 hPa 0 mm - 29 W/m² -
1787842748 16.67° C 76% 1021.7 hPa 0 mm - 18 W/m² -
1787842443 16.67° C 75% 1021.5 hPa 0 mm - 17 W/m² -
1787842138 16.67° C 76% 1021.3 hPa 0 mm - 18 W/m² -
1787841832 16.67° C 75% 1021.5 hPa 0 mm - 18 W/m² -
1787841529 16.67° C 76% 1021.4 hPa 0 mm - 11 W/m² -
1787841227 16.67° C 76% 1021.5 hPa 0 mm - 9 W/m² -
1787840922 16.67° C 76% 1021.4 hPa 0 mm - 8 W/m² -

* Rain latest hour (hover to see other rain measurements)
** Current wind speed in m/s (hover to see current wind gust speed)